| time (UTC) | temp F | wind direction | speed MPH | gust MPH | rain 1hr in | rain 24hr in | rain mn in | humidity % | barometer mb |
| 20260905154304 | 54 | 34 | 1.0 | 2.0 | 0.00 | 0.05 | 0.05 | 94 | 1015.1 |
| 20260905153804 | 54 | 112 | 0.0 | 2.0 | 0.00 | 0.05 | 0.05 | 94 | 1015.2 |
| 20260905153303 | 54 | 30 | 0.0 | 2.0 | 0.00 | 0.05 | 0.05 | 94 | 1015.1 |
| 20260905152804 | 54 | 42 | 0.0 | 3.0 | 0.00 | 0.05 | 0.05 | 94 | 1015.1 |
| 20260905152306 | 54 | 185 | 0.0 | 0.0 | 0.00 | 0.05 | 0.05 | 94 | 1015.2 |
| 20260905151804 | 54 | 185 | 0.0 | 3.0 | 0.00 | 0.05 | 0.05 | 94 | 1015.2 |
| 20260905151304 | 54 | 83 | 0.0 | 3.0 | 0.00 | 0.05 | 0.05 | 94 | 1015.3 |
| 20260905140804 | 54 | 66 | 0.0 | 0.0 | 0.00 | 0.05 | 0.05 | 94 | 1014.9 |
| 20260905140304 | 54 | 66 | 0.0 | 0.0 | 0.00 | 0.05 | 0.05 | 94 | 1014.7 |
| 20260905135804 | 55 | 66 | 0.0 | 0.0 | 0.00 | 0.05 | 0.05 | 94 | 1014.8 |
| 20260905135306 | 55 | 66 | 0.0 | 2.0 | 0.00 | 0.05 | 0.05 | 93 | 1014.8 |
| 20260905134804 | 55 | 70 | 2.0 | 6.0 | 0.00 | 0.05 | 0.05 | 93 | 1014.7 |
| 20260905134304 | 55 | 88 | 0.0 | 3.0 | 0.00 | 0.05 | 0.05 | 93 | 1014.7 |
| 20260905133804 | 55 | 104 | 0.0 | 1.0 | 0.00 | 0.05 | 0.05 | 93 | 1014.7 |
| 20260905133305 | 55 | 152 | 1.0 | 5.0 | 0.00 | 0.05 | 0.05 | 93 | 1014.6 |
| 20260905132804 | 55 | 241 | 0.0 | 2.0 | 0.00 | 0.05 | 0.05 | 93 | 1014.5 |
| 20260905132306 | 55 | 217 | 0.0 | 2.0 | 0.00 | 0.05 | 0.05 | 93 | 1014.6 |
| 20260905131805 | 55 | 195 | 0.0 | 0.0 | 0.00 | 0.05 | 0.05 | 93 | 1014.5 |
| 20260905131304 | 55 | 206 | 1.0 | 2.0 | 0.00 | 0.05 | 0.05 | 93 | 1014.4 |
| 20260905130804 | 55 | 248 | 0.0 | 0.0 | 0.00 | 0.05 | 0.05 | 92 | 1014.3 |
| 20260905130305 | 55 | 248 | 0.0 | 0.0 | 0.01 | 0.05 | 0.05 | 92 | 1014.2 |
| 20260905125804 | 55 | 248 | 0.0 | 0.0 | 0.01 | 0.05 | 0.05 | 92 | 1014.1 |
| 20260905125306 | 55 | 248 | 0.0 | 0.0 | 0.01 | 0.05 | 0.05 | 92 | 1014.0 |
| 20260905124804 | 55 | 248 | 1.0 | 2.0 | 0.01 | 0.05 | 0.05 | 92 | 1014.0 |
| 20260905124304 | 55 | 355 | 3.0 | 6.0 | 0.01 | 0.05 | 0.05 | 92 | 1013.9 |
| 20260905123804 | 55 | 2 | 4.0 | 6.0 | 0.01 | 0.05 | 0.05 | 92 | 1014.0 |
| 20260905123305 | 55 | 45 | 0.0 | 0.0 | 0.01 | 0.05 | 0.05 | 92 | 1014.1 |
| 20260905122805 | 55 | 42 | 2.0 | 5.0 | 0.02 | 0.05 | 0.05 | 92 | 1014.1 |
| 20260905122306 | 55 | 158 | 2.0 | 3.0 | 0.03 | 0.05 | 0.05 | 92 | 1014.2 |
| 20260905121805 | 55 | 356 | 1.0 | 2.0 | 0.04 | 0.05 | 0.05 | 92 | 1014.2 |
| 20260905121304 | 55 | 185 | 1.0 | 3.0 | 0.05 | 0.05 | 0.05 | 92 | 1014.3 |
| 20260905120805 | 55 | 160 | 1.0 | 2.0 | 0.05 | 0.05 | 0.05 | 92 | 1014.3 |
| 20260905120305 | 55 | 165 | 3.0 | 7.0 | 0.04 | 0.04 | 0.04 | 92 | 1014.4 |
| 20260905115804 | 55 | 343 | 5.0 | 7.0 | 0.04 | 0.04 | 0.04 | 92 | 1014.1 |
| 20260905115306 | 55 | 10 | 3.0 | 8.0 | 0.04 | 0.04 | 0.04 | 92 | 1014.2 |
| 20260905114804 | 55 | 45 | 3.0 | 7.0 | 0.04 | 0.04 | 0.04 | 91 | 1014.3 |
| 20260905114305 | 55 | 50 | 2.0 | 8.0 | 0.04 | 0.04 | 0.04 | 91 | 1014.4 |
| 20260905113804 | 55 | 61 | 2.0 | 5.0 | 0.04 | 0.04 | 0.04 | 90 | 1014.3 |
| 20260905113305 | 55 | 341 | 2.0 | 5.0 | 0.04 | 0.04 | 0.04 | 90 | 1014.5 |
| 20260905112804 | 55 | 310 | 2.0 | 7.0 | 0.03 | 0.03 | 0.03 | 90 | 1014.4 |
| 20260905112306 | 55 | 279 | 0.0 | 1.0 | 0.02 | 0.02 | 0.02 | 90 | 1014.4 |
| 20260905111805 | 55 | 284 | 1.0 | 2.0 | 0.01 | 0.01 | 0.01 | 90 | 1014.3 |
| 20260905111304 | 54 | 282 | 1.0 | 2.0 | 0.00 | 0.00 | 0.00 | 90 | 1014.2 |
| 20260905110804 | 54 | 268 | 0.0 | 2.0 | 0.00 | 0.00 | 0.00 | 90 | 1013.9 |
| 20260905110304 | 54 | 289 | 1.0 | 3.0 | 0.00 | 0.00 | 0.00 | 90 | 1013.8 |
| 20260905105804 | 54 | 182 | 1.0 | 3.0 | 0.00 | 0.00 | 0.00 | 89 | 1013.7 |
| 20260905084803 | 55 | 209 | 1.0 | 3.0 | 0.00 | 0.00 | 0.00 | 86 | 1014.5 |
| 20260905084304 | 55 | 85 | 1.0 | 2.0 | 0.00 | 0.00 | 0.00 | 85 | 1014.5 |
| 20260905083803 | 55 | 202 | 1.0 | 2.0 | 0.00 | 0.00 | 0.00 | 85 | 1014.7 |
| 20260905083304 | 55 | 340 | 0.0 | 1.0 | 0.00 | 0.00 | 0.00 | 85 | 1014.7 |
| 20260905082805 | 55 | 351 | 1.0 | 2.0 | 0.00 | 0.00 | 0.00 | 85 | 1014.8 |
| 20260905082307 | 55 | 42 | 2.0 | 3.0 | 0.00 | 0.00 | 0.00 | 84 | 1014.8 |
| 20260905081804 | 56 | 7 | 1.0 | 2.0 | 0.00 | 0.00 | 0.00 | 84 | 1015.0 |
| 20260905081304 | 56 | 100 | 0.0 | 0.0 | 0.00 | 0.00 | 0.00 | 84 | 1015.1 |
| 20260905080804 | 56 | 100 | 0.0 | 2.0 | 0.00 | 0.00 | 0.00 | 84 | 1015.3 |
| 20260905080304 | 56 | 204 | 0.0 | 2.0 | 0.00 | 0.00 | 0.00 | 83 | 1015.3 |
| 20260905075804 | 56 | 206 | 0.0 | 0.0 | 0.00 | 0.00 | 0.00 | 83 | 1015.5 |
| 20260905075306 | 56 | 206 | 0.0 | 0.0 | 0.00 | 0.00 | 0.00 | 83 | 1015.6 |
| 20260905074804 | 56 | 206 | 0.0 | 0.0 | 0.00 | 0.00 | 0.00 | 82 | 1015.6 |
| 20260905074304 | 56 | 206 | 0.0 | 0.0 | 0.00 | 0.00 | 0.00 | 82 | 1015.7 |
| 20260905063307 | 57 | 221 | 2.0 | 3.0 | 0.00 | 0.00 | 0.00 | 78 | 1016.1 |
| 20260905062807 | 57 | 228 | 2.0 | 3.0 | 0.00 | 0.00 | 0.00 | 77 | 1016.0 |
| 20260905062306 | 58 | 227 | 1.0 | 3.0 | 0.00 | 0.00 | 0.00 | 77 | 1015.9 |
| 20260905061805 | 58 | 230 | 2.0 | 5.0 | 0.00 | 0.00 | 0.00 | 76 | 1015.9 |
| 20260905061306 | 58 | 228 | 2.0 | 3.0 | 0.00 | 0.00 | 0.00 | 76 | 1015.9 |
| 20260905060805 | 58 | 229 | 0.0 | 0.0 | 0.00 | 0.00 | 0.00 | 75 | 1015.8 |
| 20260905060305 | 59 | 229 | 0.0 | 0.0 | 0.00 | 0.00 | 0.00 | 75 | 1015.7 |
| 20260905055804 | 59 | 229 | 0.0 | 0.0 | 0.00 | 0.00 | 0.00 | 75 | 1015.7 |
| 20260905055306 | 59 | 229 | 0.0 | 0.0 | 0.00 | 0.00 | 0.00 | 74 | 1015.7 |
| 20260905054804 | 59 | 229 | 0.0 | 0.0 | 0.00 | 0.00 | 0.00 | 74 | 1015.8 |
| 20260905054304 | 59 | 229 | 0.0 | 2.0 | 0.00 | 0.00 | 0.00 | 74 | 1015.9 |
| 20260905053804 | 59 | 267 | 0.0 | 1.0 | 0.00 | 0.00 | 0.00 | 74 | 1016.0 |
| 20260905053305 | 59 | 308 | 0.0 | 0.0 | 0.00 | 0.00 | 0.00 | 74 | 1016.0 |
| 20260905052804 | 59 | 308 | 0.0 | 2.0 | 0.00 | 0.00 | 0.00 | 74 | 1016.1 |
| 20260905052306 | 59 | 258 | 1.0 | 5.0 | 0.00 | 0.00 | 0.00 | 74 | 1016.1 |
| 20260905051804 | 59 | 206 | 2.0 | 3.0 | 0.00 | 0.00 | 0.00 | 74 | 1016.0 |
| 20260905051303 | 60 | 207 | 0.0 | 2.0 | 0.00 | 0.00 | 0.00 | 74 | 1016.0 |
| 20260905050804 | 60 | 220 | 2.0 | 2.0 | 0.00 | 0.00 | 0.00 | 74 | 1016.1 |
| 20260905050304 | 60 | 232 | 1.0 | 3.0 | 0.00 | 0.00 | 0.00 | 74 | 1016.1 |
| 20260905045804 | 60 | 164 | 0.0 | 0.0 | 0.00 | 0.00 | 0.00 | 73 | 1016.1 |
| 20260905045305 | 60 | 164 | 0.0 | 0.0 | 0.00 | 0.00 | 0.00 | 72 | 1016.1 |
| 20260905044804 | 60 | 164 | 0.0 | 0.0 | 0.00 | 0.00 | 0.00 | 72 | 1016.1 |
| 20260905044304 | 60 | 164 | 1.0 | 3.0 | 0.00 | 0.00 | 0.00 | 72 | 1016.1 |
| 20260905043804 | 60 | 180 | 1.0 | 2.0 | 0.00 | 0.00 | 0.00 | 72 | 1016.2 |
| 20260905043304 | 60 | 217 | 1.0 | 2.0 | 0.00 | 0.00 | 0.00 | 72 | 1016.2 |
| 20260905042804 | 60 | 170 | 0.0 | 3.0 | 0.00 | 0.00 | 0.00 | 72 | 1016.2 |
| 20260905042306 | 60 | 331 | 1.0 | 3.0 | 0.00 | 0.00 | 0.00 | 72 | 1016.2 |
| 20260905041803 | 61 | 323 | 0.0 | 1.0 | 0.00 | 0.00 | 0.00 | 72 | 1016.3 |
| 20260905041304 | 61 | 325 | 0.0 | 1.0 | 0.00 | 0.00 | 0.00 | 73 | 1016.3 |
| 20260905040804 | 61 | 341 | 2.0 | 5.0 | 0.00 | 0.00 | 0.00 | 74 | 1016.2 |
| 20260905040304 | 61 | 10 | 2.0 | 5.0 | 0.00 | 0.00 | 0.00 | 74 | 1016.2 |
| 20260905035804 | 61 | 348 | 2.0 | 3.0 | 0.00 | 0.00 | 0.00 | 73 | 1016.4 |
| 20260905035306 | 61 | 0 | 2.0 | 5.0 | 0.00 | 0.00 | 0.00 | 73 | 1016.5 |
| 20260905034804 | 61 | 41 | 2.0 | 5.0 | 0.00 | 0.00 | 0.00 | 73 | 1016.7 |
| 20260905034304 | 61 | 349 | 1.0 | 3.0 | 0.00 | 0.00 | 0.00 | 73 | 1016.7 |
| 20260905033804 | 61 | 267 | 0.0 | 1.0 | 0.00 | 0.00 | 0.00 | 72 | 1016.8 |
| 20260905033304 | 61 | 333 | 2.0 | 5.0 | 0.00 | 0.00 | 0.00 | 72 | 1016.8 |
| 20260905032804 | 62 | 30 | 2.0 | 3.0 | 0.00 | 0.00 | 0.00 | 72 | 1016.9 |
| 20260905032306 | 62 | 45 | 0.0 | 3.0 | 0.00 | 0.00 | 0.00 | 71 | 1017.0 |
| 20260905031804 | 62 | 189 | 2.0 | 5.0 | 0.00 | 0.00 | 0.00 | 71 | 1017.0 |
| 20260905031304 | 62 | 18 | 3.0 | 5.0 | 0.00 | 0.00 | 0.00 | 70 | 1017.0 |
| 20260905030804 | 62 | 47 | 2.0 | 2.0 | 0.00 | 0.00 | 0.00 | 70 | 1017.1 |
| 20260905030303 | 62 | 62 | 0.0 | 0.0 | 0.00 | 0.00 | 0.00 | 70 | 1017.2 |
| 20260905025804 | 62 | 70 | 1.0 | 5.0 | 0.00 | 0.00 | 0.00 | 70 | 1017.1 |
| 20260905025306 | 62 | 11 | 3.0 | 5.0 | 0.00 | 0.00 | 0.00 | 69 | 1017.1 |
| 20260905024804 | 62 | 155 | 0.0 | 3.0 | 0.00 | 0.00 | 0.00 | 69 | 1017.3 |
| 20260905024304 | 62 | 343 | 2.0 | 2.0 | 0.00 | 0.00 | 0.00 | 69 | 1017.3 |
| 20260905023804 | 62 | 25 | 2.0 | 3.0 | 0.00 | 0.00 | 0.00 | 68 | 1017.2 |
| 20260905023304 | 62 | 2 | 2.0 | 3.0 | 0.00 | 0.00 | 0.00 | 68 | 1017.2 |
| 20260905022803 | 62 | 1 | 1.0 | 5.0 | 0.00 | 0.00 | 0.00 | 68 | 1017.3 |
| 20260905022306 | 63 | 17 | 3.0 | 5.0 | 0.00 | 0.00 | 0.00 | 67 | 1017.4 |
| 20260905021803 | 63 | 2 | 2.0 | 3.0 | 0.00 | 0.00 | 0.00 | 67 | 1017.5 |
| 20260905021304 | 63 | 20 | 1.0 | 3.0 | 0.00 | 0.00 | 0.00 | 67 | 1017.6 |
| 20260905020804 | 63 | 7 | 2.0 | 3.0 | 0.00 | 0.00 | 0.00 | 66 | 1017.6 |
| 20260905020304 | 63 | 56 | 0.0 | 2.0 | 0.00 | 0.00 | 0.00 | 66 | 1017.8 |
| 20260905015804 | 63 | 3 | 1.0 | 2.0 | 0.00 | 0.00 | 0.00 | 66 | 1017.9 |
| 20260905015306 | 63 | 337 | 1.0 | 2.0 | 0.00 | 0.00 | 0.00 | 66 | 1018.0 |
| 20260905014804 | 63 | 296 | 0.0 | 3.0 | 0.00 | 0.00 | 0.00 | 66 | 1018.0 |
| 20260905014304 | 63 | 326 | 2.0 | 3.0 | 0.00 | 0.00 | 0.00 | 66 | 1017.9 |
| 20260905013804 | 63 | 3 | 1.0 | 5.0 | 0.00 | 0.00 | 0.00 | 66 | 1018.0 |
| 20260905013304 | 63 | 288 | 1.0 | 3.0 | 0.00 | 0.00 | 0.00 | 66 | 1018.0 |
| 20260905012804 | 63 | 335 | 2.0 | 7.0 | 0.00 | 0.00 | 0.00 | 65 | 1018.0 |
| 20260905012306 | 63 | 6 | 5.0 | 8.0 | 0.00 | 0.00 | 0.00 | 65 | 1018.0 |
| 20260905011804 | 63 | 355 | 2.0 | 5.0 | 0.00 | 0.00 | 0.00 | 65 | 1017.9 |
| 20260905011304 | 63 | 9 | 3.0 | 7.0 | 0.00 | 0.00 | 0.00 | 65 | 1018.0 |
| 20260905010804 | 63 | 8 | 3.0 | 5.0 | 0.00 | 0.00 | 0.00 | 65 | 1018.0 |
| 20260905010304 | 63 | 23 | 3.0 | 5.0 | 0.00 | 0.00 | 0.00 | 66 | 1018.1 |
| 20260905005804 | 63 | 354 | 3.0 | 5.0 | 0.00 | 0.00 | 0.00 | 66 | 1018.1 |
| 20260905005306 | 63 | 3 | 4.0 | 7.0 | 0.00 | 0.00 | 0.00 | 66 | 1018.1 |
| 20260905004804 | 63 | 21 | 3.0 | 5.0 | 0.00 | 0.00 | 0.00 | 66 | 1018.2 |
| 20260905004304 | 63 | 50 | 2.0 | 5.0 | 0.00 | 0.00 | 0.00 | 66 | 1018.2 |
| 20260905003804 | 63 | 8 | 2.0 | 5.0 | 0.00 | 0.00 | 0.00 | 66 | 1018.2 |
| 20260905003304 | 63 | 327 | 2.0 | 5.0 | 0.00 | 0.00 | 0.00 | 66 | 1018.3 |
| 20260905002804 | 63 | 1 | 4.0 | 7.0 | 0.00 | 0.00 | 0.00 | 66 | 1018.5 |
| 20260905002306 | 63 | 330 | 3.0 | 5.0 | 0.00 | 0.00 | 0.00 | 66 | 1018.6 |
| 20260905001806 | 63 | 16 | 3.0 | 6.0 | 0.00 | 0.00 | 0.00 | 66 | 1018.7 |
| 20260905001305 | 63 | 23 | 3.0 | 5.0 | 0.00 | 0.00 | 0.00 | 66 | 1018.7 |
| 20260905000804 | 63 | 30 | 1.0 | 7.0 | 0.00 | 0.00 | 0.00 | 67 | 1018.8 |
| 20260905000304 | 63 | 354 | 5.0 | 8.0 | 0.00 | 0.00 | 0.00 | 67 | 1018.8 |
| 20260904235804 | 63 | 356 | 3.0 | 8.0 | 0.00 | 0.00 | 0.00 | 67 | 1018.8 |
| 20260904235306 | 63 | 11 | 3.0 | 5.0 | 0.00 | 0.00 | 0.00 | 67 | 1018.8 |
| 20260904234804 | 63 | 5 | 3.0 | 7.0 | 0.00 | 0.00 | 0.00 | 68 | 1018.8 |
| 20260904234305 | 63 | 356 | 3.0 | 7.0 | 0.00 | 0.00 | 0.00 | 68 | 1018.8 |
| 20260904233804 | 64 | 0 | 5.0 | 7.0 | 0.00 | 0.00 | 0.00 | 69 | 1018.8 |
| 20260904233304 | 64 | 357 | 4.0 | 7.0 | 0.00 | 0.00 | 0.00 | 69 | 1018.9 |
| 20260904232804 | 64 | 352 | 3.0 | 7.0 | 0.00 | 0.00 | 0.00 | 68 | 1018.9 |
| 20260904232306 | 64 | 0 | 4.0 | 7.0 | 0.00 | 0.00 | 0.00 | 68 | 1018.8 |
| 20260904231804 | 63 | 8 | 5.0 | 7.0 | 0.00 | 0.00 | 0.00 | 69 | 1018.9 |
| 20260904231304 | 63 | 0 | 3.0 | 7.0 | 0.00 | 0.00 | 0.00 | 70 | 1019.0 |
| 20260904230304 | 63 | 326 | 4.0 | 6.0 | 0.00 | 0.00 | 0.00 | 70 | 1019.0 |
| 20260904225804 | 63 | 341 | 5.0 | 8.0 | 0.00 | 0.00 | 0.00 | 70 | 1019.1 |
| 20260904225306 | 63 | 336 | 3.0 | 6.0 | 0.00 | 0.00 | 0.00 | 70 | 1019.2 |
| 20260904224804 | 63 | 348 | 1.0 | 5.0 | 0.00 | 0.00 | 0.00 | 71 | 1019.1 |
| 20260904224304 | 63 | 0 | 2.0 | 3.0 | 0.00 | 0.00 | 0.00 | 71 | 1019.3 |
| 20260904223804 | 63 | 275 | 1.0 | 2.0 | 0.00 | 0.00 | 0.00 | 72 | 1019.4 |
| 20260904223304 | 63 | 264 | 0.0 | 3.0 | 0.00 | 0.00 | 0.00 | 72 | 1019.5 |
| 20260904222805 | 62 | 320 | 1.0 | 3.0 | 0.00 | 0.00 | 0.00 | 72 | 1019.5 |
| 20260904222306 | 62 | 307 | 1.0 | 2.0 | 0.00 | 0.00 | 0.00 | 72 | 1019.6 |
| 20260904221804 | 62 | 315 | 2.0 | 5.0 | 0.00 | 0.00 | 0.00 | 72 | 1019.6 |
| 20260904221304 | 62 | 335 | 3.0 | 5.0 | 0.00 | 0.00 | 0.00 | 73 | 1019.6 |
| 20260904220804 | 62 | 278 | 1.0 | 7.0 | 0.00 | 0.00 | 0.00 | 73 | 1019.7 |
| 20260904220304 | 62 | 345 | 3.0 | 6.0 | 0.00 | 0.00 | 0.00 | 73 | 1019.7 |
| 20260904215804 | 61 | 314 | 1.0 | 3.0 | 0.00 | 0.00 | 0.00 | 73 | 1019.7 |
| 20260904215305 | 61 | 335 | 3.0 | 6.0 | 0.00 | 0.00 | 0.00 | 74 | 1019.6 |
| 20260904214804 | 61 | 309 | 1.0 | 2.0 | 0.00 | 0.00 | 0.00 | 75 | 1019.7 |
| 20260904214304 | 61 | 342 | 1.0 | 3.0 | 0.00 | 0.00 | 0.00 | 76 | 1019.6 |
| 20260904213804 | 60 | 282 | 3.0 | 5.0 | 0.00 | 0.00 | 0.00 | 76 | 1019.6 |
| 20260904213304 | 60 | 223 | 1.0 | 2.0 | 0.00 | 0.00 | 0.00 | 77 | 1019.7 |
| 20260904212804 | 60 | 190 | 2.0 | 2.0 | 0.00 | 0.00 | 0.00 | 77 | 1019.8 |
| 20260904212306 | 60 | 241 | 0.0 | 2.0 | 0.00 | 0.00 | 0.00 | 77 | 1019.9 |
| 20260904211804 | 59 | 216 | 2.0 | 3.0 | 0.00 | 0.00 | 0.00 | 78 | 1020.0 |
| 20260904211305 | 59 | 226 | 2.0 | 3.0 | 0.00 | 0.00 | 0.00 | 78 | 1020.0 |
| 20260904210804 | 59 | 183 | 1.0 | 1.0 | 0.00 | 0.00 | 0.00 | 78 | 1020.0 |
| 20260904210304 | 59 | 220 | 1.0 | 3.0 | 0.00 | 0.00 | 0.00 | 79 | 1020.0 |
| 20260904205306 | 58 | 339 | 0.0 | 0.0 | 0.00 | 0.00 | 0.00 | 79 | 1020.0 |
| 20260904204804 | 58 | 339 | 0.0 | 0.0 | 0.00 | 0.00 | 0.00 | 80 | 1019.9 |
| 20260904204305 | 58 | 339 | 0.0 | 1.0 | 0.00 | 0.00 | 0.00 | 80 | 1019.9 |
| 20260904203805 | 58 | 304 | 1.0 | 1.0 | 0.00 | 0.00 | 0.00 | 81 | 1019.9 |
| 20260904203305 | 58 | 17 | 0.0 | 1.0 | 0.00 | 0.00 | 0.00 | 81 | 1020.0 |
| 20260904202804 | 58 | 48 | 1.0 | 2.0 | 0.00 | 0.00 | 0.00 | 82 | 1019.8 |
| 20260904202306 | 57 | 5 | 2.0 | 3.0 | 0.00 | 0.00 | 0.00 | 82 | 1019.8 |
| 20260904201804 | 57 | 30 | 2.0 | 5.0 | 0.00 | 0.00 | 0.00 | 82 | 1019.9 |
| 20260904201304 | 57 | 19 | 1.0 | 3.0 | 0.00 | 0.00 | 0.00 | 83 | 1020.0 |
| 20260904200804 | 57 | 251 | 0.0 | 3.0 | 0.00 | 0.00 | 0.00 | 83 | 1020.0 |
| 20260904200307 | 57 | 355 | 3.0 | 5.0 | 0.00 | 0.00 | 0.00 | 83 | 1019.9 |
| 20260904195805 | 56 | 34 | 3.0 | 6.0 | 0.00 | 0.00 | 0.00 | 83 | 1019.9 |
| 20260904195306 | 56 | 38 | 2.0 | 5.0 | 0.00 | 0.00 | 0.00 | 83 | 1019.9 |
| 20260904184805 | 55 | 241 | 1.0 | 3.0 | 0.00 | 0.00 | 0.00 | 85 | 1020.1 |
| 20260904184303 | 55 | 197 | 1.0 | 3.0 | 0.00 | 0.00 | 0.00 | 85 | 1020.1 |
| 20260904183804 | 55 | 240 | 3.0 | 5.0 | 0.00 | 0.00 | 0.00 | 85 | 1020.2 |
| 20260904183304 | 54 | 147 | 2.0 | 3.0 | 0.00 | 0.00 | 0.00 | 86 | 1020.1 |
| 20260904182804 | 54 | 200 | 2.0 | 3.0 | 0.00 | 0.00 | 0.00 | 86 | 1020.1 |
| 20260904182306 | 54 | 199 | 1.0 | 2.0 | 0.00 | 0.00 | 0.00 | 86 | 1020.1 |
| 20260904181804 | 54 | 177 | 1.0 | 3.0 | 0.00 | 0.00 | 0.00 | 86 | 1020.1 |
| 20260904181304 | 54 | 354 | 0.0 | 1.0 | 0.00 | 0.00 | 0.00 | 87 | 1020.0 |
| 20260904180804 | 54 | 336 | 2.0 | 3.0 | 0.00 | 0.00 | 0.00 | 87 | 1020.0 |
| 20260904180304 | 54 | 4 | 0.0 | 1.0 | 0.00 | 0.00 | 0.00 | 87 | 1020.0 |
| 20260904175804 | 54 | 37 | 0.0 | 1.0 | 0.00 | 0.00 | 0.00 | 87 | 1020.0 |
| 20260904175306 | 53 | 117 | 1.0 | 2.0 | 0.00 | 0.00 | 0.00 | 87 | 1020.1 |
| 20260904174804 | 53 | 17 | 1.0 | 2.0 | 0.00 | 0.00 | 0.00 | 87 | 1020.1 |
| 20260904173804 | 53 | 9 | 1.0 | 3.0 | 0.00 | 0.00 | 0.00 | 88 | 1020.2 |
| 20260904173304 | 53 | 224 | 1.0 | 3.0 | 0.00 | 0.00 | 0.00 | 88 | 1020.5 |
| 20260904172804 | 53 | 207 | 2.0 | 5.0 | 0.00 | 0.00 | 0.00 | 88 | 1020.5 |
| 20260904172305 | 53 | 56 | 0.0 | 2.0 | 0.00 | 0.00 | 0.00 | 88 | 1020.4 |
| 20260904171804 | 53 | 133 | 2.0 | 3.0 | 0.00 | 0.00 | 0.00 | 88 | 1020.4 |
| 20260904171304 | 52 | 225 | 2.0 | 3.0 | 0.00 | 0.00 | 0.00 | 88 | 1020.6 |
| 20260904170804 | 52 | 192 | 0.0 | 3.0 | 0.00 | 0.00 | 0.00 | 88 | 1020.5 |
| 20260904170304 | 52 | 219 | 0.0 | 1.0 | 0.00 | 0.00 | 0.00 | 88 | 1020.4 |
| 20260904165803 | 52 | 253 | 2.0 | 6.0 | 0.00 | 0.00 | 0.00 | 88 | 1020.4 |
| 20260904165305 | 52 | 232 | 0.0 | 2.0 | 0.00 | 0.00 | 0.00 | 88 | 1020.3 |
| 20260904164804 | 52 | 226 | 2.0 | 2.0 | 0.00 | 0.00 | 0.00 | 89 | 1020.1 |
| 20260904164303 | 52 | 199 | 0.0 | 0.0 | 0.00 | 0.00 | 0.00 | 89 | 1020.0 |
| 20260904163803 | 52 | 199 | 0.0 | 0.0 | 0.00 | 0.00 | 0.00 | 89 | 1019.9 |
| 20260904163304 | 51 | 199 | 0.0 | 0.0 | 0.00 | 0.00 | 0.00 | 89 | 1019.8 |
| 20260904162804 | 51 | 199 | 0.0 | 0.0 | 0.00 | 0.00 | 0.00 | 89 | 1019.9 |
| 20260904162306 | 51 | 199 | 0.0 | 0.0 | 0.00 | 0.00 | 0.00 | 89 | 1019.9 |
| 20260904161804 | 51 | 199 | 0.0 | 1.0 | 0.00 | 0.00 | 0.00 | 89 | 1019.9 |
| 20260904161304 | 51 | 210 | 0.0 | 0.0 | 0.00 | 0.00 | 0.00 | 89 | 1020.0 |
| 20260904160804 | 51 | 210 | 1.0 | 2.0 | 0.00 | 0.00 | 0.00 | 89 | 1019.9 |
| 20260904160304 | 51 | 206 | 1.0 | 2.0 | 0.00 | 0.00 | 0.00 | 89 | 1019.8 |
| 20260904155804 | 51 | 333 | 0.0 | 2.0 | 0.00 | 0.00 | 0.00 | 89 | 1019.9 |
| 20260904155306 | 51 | 108 | 0.0 | 2.0 | 0.00 | 0.00 | 0.00 | 89 | 1019.9 |
| 20260904154804 | 50 | 146 | 1.0 | 1.0 | 0.00 | 0.00 | 0.00 | 89 | 1019.9 |